Location: Castelnau
(43.6639°N, 0.8431°W)
Time: 21:30:49
(UTC+00:00)

ATLAS CENTAUR Rocket - Pass Details

Date: 13 January 2026
Orbit: 686 x 36551 km, 28.1° (Epoch: 9 February)

Event Time Altitude Azimuth Distance (km) Brightness Sun altitude
Exits shadow 04:38:46 24° 195° (SSW) 2,409 4.4 -31.3°
Maximum altitude 04:40:50 27° 169° (S) 2,743 4.8 -30.9°
Drops below altitude 10° 04:55:46 10° 119° (ESE) 8,301 8.0 -28.2°
Sets 05:14:26 0° 112° (ESE) 14,500 9.7 -24.8°
